This demonstration page uses our WeatherBlox Daily Observations layout. Learn more.

Left ArrowRight Arrow

Hourly Observations for October 1, 2022

Temp ( °F °C ) Dew Point ( °F °C ) Humidity (%) Winds ( mph kmh ) Pressure ( in mb ) Visibility ( mi km ) Precip ( " mm )
12:18 am 00:18 Cloudy with Light Rain 72 22.2 70 21.1 93 93 E 5 7 29.74 1007 6 10 0.01 0.13
12:34 am 00:34 Cloudy with Thunderstorms 73 22.8 70 21.1 90 90 E 5 7 29.74 1007 5 8 0.01 0.13
12:45 am 00:45 Cloudy with Light Rain 73 22.8 71 21.7 94 94 ESE 7 11 29.74 1007 6 10 0.01 0.13
12:59 am 00:59 Cloudy with Light Rain 72 22.2 71 21.7 97 97 ESE 7 11 29.74 1007 6 10 0.01 0.13
1:59 am 01:59 Mostly Cloudy with Light Rain 74 23.3 72 22.2 94 94 SSE 3 6 29.74 1007 6 10 0.01 0.13
2:59 am 02:59 Mostly Cloudy with Light Rain 73 22.8 71 21.7 94 94 ESE 3 6 29.73 1007 5 8 0.01 0.13
3:30 am 03:30 Mostly Cloudy with Light Rain 71 21.7 70 21.1 96 96 ESE 5 7 29.73 1007 2 3 0.01 0.13
3:37 am 03:37 Mostly Cloudy with Light Rain 72 22.2 70 21.1 93 93 ESE 3 6 29.73 1007 3 4 0.01 0.13
3:52 am 03:52 Mostly Cloudy with Light Rain 72 22.2 70 21.1 93 93 ESE 5 7 29.74 1007 4 6 0.01 0.13
3:59 am 03:59 Mostly Cloudy with Light Rain 72 22.2 70 21.1 93 93 ESE 5 7 29.74 1007 5 8 0.01 0.13
4:59 am 04:59 Mostly Cloudy with Mist and Fog 72 22.2 70 21.1 93 93 ESE 5 7 29.75 1007 5 8 0.01 0.13
5:59 am 05:59 Cloudy with Mist and Fog 72 22.2 70 21.1 93 93 ESE 3 6 29.75 1008 5 8 0.00 0.00
6:59 am 06:59 Mostly Cloudy 71 21.7 69 20.6 93 93 Calm 29.77 1008 7 11 0.00 0.00
7:59 am 07:59 Mostly Cloudy 72 22.2 70 21.1 93 93 SSE 3 6 29.79 1009 8 13 0.00 0.00
8:59 am 08:59 Mostly Cloudy 74 23.3 69 20.6 85 85 S 5 7 29.80 1009 10 16 0.00 0.00
9:59 am 09:59 Mostly Cloudy 73 22.8 68 20 84 84 SSE 6 9 29.81 1009 10 16 0.00 0.00
10:59 am 10:59 Mostly Cloudy 73 22.8 67 19.4 81 81 S 12 19 29.81 1010 9 14 0.00 0.00
11:59 am 11:59 Mostly Cloudy 73 22.8 66 18.9 79 79 SW 9 15 29.81 1010 10 16 0.00 0.00
12:59 pm 12:59 Mostly Cloudy 75 23.9 64 17.8 69 69 S 10 17 29.81 1010 10 16 0.00 0.00
1:59 pm 13:59 Mostly Cloudy 77 25 62 16.7 60 60 SSW 10 17 29.80 1009 10 16 0.00 0.00
2:59 pm 14:59 Mostly Cloudy 76 24.4 61 16.1 60 60 SSW 10 17 29.80 1009 10 16 0.00 0.00
3:59 pm 15:59 Mostly Cloudy 76 24.4 61 16.1 60 60 WSW 3 6 29.79 1009 10 16 0.00 0.00
4:59 pm 16:59 Mostly Cloudy 75 23.9 60 15.6 60 60 WSW 8 13 29.80 1009 10 16 0.00 0.00
5:59 pm 17:59 Mostly Cloudy 72 22.2 59 15 64 64 W 9 15 29.82 1010 10 16 0.00 0.00
6:59 pm 18:59 Partly Cloudy 68 20 57 13.9 68 68 W 10 17 29.83 1010 10 16 0.00 0.00
7:59 pm 19:59 Clear 66 18.9 56 13.3 70 70 W 8 13 29.85 1011 10 16 0.00 0.00
8:59 pm 20:59 Clear 66 18.9 56 13.3 70 70 WSW 3 6 29.85 1011 10 16 0.00 0.00
9:59 pm 21:59 Partly Cloudy 65 18.3 56 13.3 73 73 W 5 7 29.86 1011 10 16 0.00 0.00
10:59 pm 22:59 Mostly Clear 62 16.7 56 13.3 80 80 Calm 29.87 1012 10 16 0.00 0.00
11:59 pm 23:59 Mostly Clear 60 15.6 56 13.3 86 86 Calm 29.87 1011 10 16 0.00 0.00

Powered by AerisWeather